SCP
0 0 0 0 0 0 0 0 0 0 0 0 0 0 0 0 0 0 0 0 0 1 1 1 1 1 1 1 1 1 1 2 3 3 2 2 2 1 1 1 1 1 1 1
0 0 0 0 0 0 0 0 0 0 0 0 0 0 0 0 0 0 0 0 0 1 1 1 2 2 2 2 2 2 2 3 3 4 3 3 3 2 2 1 1 1 1 1
0 0 0 0 0 0 0 0 0 0 0 0 0 0 0 0 0 0 0 0 1 1 1 1 2 2 3 3 2 2 3 3 4 5 5 4 4 3 2 2 1 1 1 1
0 0 0 0 0 0 0 0 0 0 0 0 0 0 0 0 0 0 0 1 1 1 1 1 2 2 3 3 3 3 4 4 4 5 5 5 4 4 3 3 2 1 1 1
0 0 0 0 0 0 0 0 0 0 0 0 0 0 0 1 1 1 1 1 1 1 1 1 1 2 2 3 3 4 5 5 5 5 6 5 5 4 4 3 2 2 2 1
0 0 0 0 0 0 0 0 0 0 0 0 0 0 0 1 1 0 1 1 1 1 1 1 1 1 2 2 3 5 5 5 5 6 6 6 5 4 3 3 2 2 2 2
0 0 0 0 0 0 0 0 0 0 0 0 0 0 1 1 0 0 0 1 1 1 1 0 1 1 2 2 3 4 5 5 5 6 6 6 5 4 3 3 3 2 2 2
0 0 0 0 0 0 0 0 0 0 0 0 0 0 1 0 0 0 0 1 1 1 0 0 0 1 1 2 2 3 4 4 5 5 5 5 4 3 2 3 2 2 1 1
0 0 0 0 0 0 0 0 0 0 0 0 0 0 0 0 0 0 0 0 0 0 0 0 0 0 1 1 2 2 3 3 4 5 5 4 3 2 2 2 2 1 1 1
0 0 0 0 0 0 0 0 0 0 0 0 0 0 0 0 0 0 0 0 0 0 0 0 0 0 1 1 1 2 3 4 4 5 4 3 2 1 1 1 1 1 0 0
0 0 0 0 0 0 0 0 0 0 0 0 0 0 0 0 0 0 0 0 0 0 0 0 0 0 0 1 1 1 2 3 4 4 3 2 1 1 1 1 0 0 0 0
0 0 0 0 0 0 0 0 0 0 0 0 0 0 0 0 0 0 0 0 0 0 0 0 0 0 0 0 0 0 1 2 2 2 2 2 1 0 0 0 0 0 0 0
0 0 0 0 0 0 0 0 0 0 0 0 0 0 0 0 0 0 0 0 0 0 0 0 0 0 0 0 0 0 0 1 1 1 1 1 0 0 0 0 0 0 0 0
0 0 0 0 0 0 0 0 0 0 0 0 0 0 0 0 0 0 0 0 0 0 0 0 0 0 0 0 0 0 0 0 0 0 0 0 0 0 0 0 0 0 0 0
0 0 0 0 0 0 0 0 0 0 0 0 0 0 0 0 0 0 0 0 0 0 0 0 0 0 0 0 0 0 0 0 0 0 0 0 0 0 0 0 0 0 0 0
0 0 0 0 0 0 0 0 0 0 0 0 0 0 0 0 0 0 0 0 0 0 0 0 0 0 0 0 0 0 0 0 0 0 0 0 0 0 0 0 0 0 1 1
0 0 0 0 0 0 0 0 0 0 0 0 0 0 0 0 0 0 0 0 0 0 0 0 0 0 0 0 0 0 0 0 0 0 0 0 0 0 0 0 0 0 1 1
0 0 0 0 0 0 0 0 0 0 0 0 0 0 0 0 0 0 0 0 0 0 0 0 0 0 0 0 0 0 0 0 0 0 0 0 0 0 0 0 0 0 1 1
0 0 0 0 0 0 0 0 0 0 0 0 0 0 0 0 0 0 0 0 0 0 0 0 0 0 0 0 0 0 0 0 0 0 0 0 0 0 0 0 0 0 1 1
0 0 0 0 0 0 0 0 0 0 0 0 0 0 0 0 0 0 0 0 0 0 0 0 0 0 0 0 0 0 0 0 0 0 0 0 0 0 0 0 0 0 0 0
0 0 0 0 0 0 0 0 0 0 0 0 0 0 0 0 0 0 0 0 0 0 0 0 0 0 0 0 0 0 0 0 0 0 0 0 0 0 0 0 0 0 0 0
0 0 0 0 0 0 0 0 0 0 0 0 0 0 0 0 0 0 0 0 0 0 0 0 0 0 0 0 0 0 0 0 0 0 0 0 0 0 0 0 0 0 0 0
0 0 0 0 0 0 0 0 0 0 0 0 0 0 0 0 0 0 0 0 0 0 0 0 0 0 0 0 0 0 0 0 0 0 0 0 0 0 0 0 0 0 0 0
0 0 0 0 0 0 0 0 0 0 0 0 0 0 0 0 0 0 0 0 0 0 0 0 0 0 0 0 0 0 0 0 0 0 0 0 0 0 0 0 0 0 0 0
0 0 0 0 0 0 0 0 0 -0 0 0 0 0 0 0 0 0 0 0 0 0 0 0 0 0 0 0 0 0 0 0 0 0 0 0 0 0 0 0 0 0 0 0
0 0 0 0 0 0 0 0 0 -0 -0 0 0 0 0 0 0 0 0 0 0 0 0 0 0 0 0 0 0 0 0 0 0 0 0 0 0 0 0 0 0 0 0 0
Wind_Speed
0 1 2 4 4 5 6 8 9 6 3 6 7 6 1 4 6 7 8 8 9 10 9 8 8 8 11 13 14 14 14 14 11 9 9 8 8 7 7 7 8 9 10 9
4 4 6 4 3 4 6 8 8 6 4 7 9 8 2 4 6 8 9 10 11 12 12 11 10 8 9 12 15 16 16 15 13 10 8 7 7 6 5 5 7 9 10 10
4 7 5 3 5 6 5 6 9 11 9 8 10 11 8 5 3 6 8 10 12 13 14 14 14 12 10 10 13 12 14 14 13 11 7 5 4 3 4 4 5 7 9 9
6 6 5 5 8 9 6 8 10 12 12 10 9 11 7 4 2 6 10 12 13 14 14 14 14 14 12 10 9 10 10 11 12 11 9 8 5 3 2 1 2 5 7 8
6 8 8 8 9 9 9 11 12 12 13 15 12 13 6 3 2 8 12 13 14 14 14 14 14 14 12 9 6 4 5 7 9 10 10 8 4 2 2 0 2 3 5 7
7 6 9 9 6 6 11 12 12 10 10 13 12 12 4 5 8 11 13 14 14 14 14 13 13 11 10 8 4 2 4 6 8 10 9 8 8 5 3 1 2 3 3 4
4 7 7 9 9 7 11 11 7 6 7 7 5 6 6 8 9 12 14 15 14 13 13 13 12 11 10 9 7 6 8 9 8 9 9 7 7 6 4 2 2 3 3 4
5 4 9 10 9 10 9 9 7 7 8 8 5 2 6 8 10 12 13 14 14 14 13 12 10 8 7 8 8 8 9 10 9 9 7 7 6 4 2 1 2 3 3 3
6 4 5 7 8 9 9 7 7 8 10 9 4 3 3 12 16 17 16 16 15 14 12 10 8 7 7 8 8 8 9 10 10 8 7 6 5 3 2 2 3 3 3 3
6 3 5 5 4 8 8 8 6 5 6 6 3 3 7 16 18 18 18 17 16 13 10 8 7 6 6 7 7 8 8 9 8 6 5 4 2 2 1 3 4 4 4 4
6 3 3 4 9 12 9 7 6 5 4 5 4 4 8 13 15 16 16 15 14 12 9 8 7 7 6 6 6 7 6 7 6 5 4 2 1 0 2 3 3 3 4 5
4 5 3 5 5 6 7 7 6 5 4 4 3 3 8 12 12 14 15 15 13 11 10 9 9 8 8 7 6 6 5 5 4 3 2 1 1 2 3 3 3 4 4 4
3 4 1 5 3 7 6 9 5 2 2 3 3 3 8 11 13 15 15 15 13 13 13 12 11 10 9 9 8 7 6 5 4 3 2 1 1 1 2 2 2 3 3 4
3 5 6 6 5 5 7 10 9 4 3 3 4 5 10 15 15 15 15 14 13 14 14 13 12 11 11 9 8 7 7 5 4 3 3 3 2 1 1 1 0 2 3 3
1 5 7 8 5 5 8 10 10 9 6 4 5 6 9 13 12 11 12 13 14 14 14 13 12 11 11 11 10 9 8 7 7 7 6 6 5 4 4 3 1 1 2 4
1 4 6 5 3 2 6 9 8 8 6 5 5 5 9 9 9 11 13 13 13 14 14 13 12 12 12 11 10 9 9 8 8 8 8 7 6 6 5 4 3 2 2 3
2 4 4 4 3 4 3 6 5 4 5 5 6 7 11 9 10 11 12 12 12 12 12 12 11 11 11 10 9 9 9 9 9 9 8 8 7 7 6 6 5 4 3 3
1 3 1 2 4 1 5 2 1 2 3 4 4 6 8 8 6 5 9 11 11 11 10 10 10 9 9 9 9 9 9 10 10 9 9 8 8 7 7 7 6 6 5 4
2 2 2 2 2 3 4 3 2 1 1 3 5 7 8 7 2 7 12 12 10 9 8 8 8 8 8 8 8 8 9 9 10 10 9 9 8 8 8 8 7 6 5 5
2 3 3 3 3 2 5 5 1 4 2 2 3 6 8 8 4 8 13 12 10 9 8 8 7 8 8 8 7 8 9 9 9 9 9 9 8 8 8 8 7 6 5 6
5 4 4 4 2 2 6 6 5 4 4 3 2 5 7 8 7 9 11 9 9 7 7 7 7 7 7 7 6 7 8 9 7 7 7 8 8 8 8 7 7 7 6 6
4 4 4 4 4 3 10 7 5 3 4 1 2 4 6 7 7 8 9 9 9 8 8 7 6 6 5 6 6 7 7 6 5 5 6 7 7 7 6 7 7 7 7 7
5 4 2 4 1 5 7 5 1 1 2 0 2 4 5 6 7 8 9 8 8 8 7 7 6 6 4 4 5 5 5 4 4 5 6 6 6 6 7 7 7 7 7 6
5 4 5 5 5 6 7 6 5 4 3 1 2 4 5 6 8 8 8 8 8 8 7 7 7 6 5 4 3 3 3 2 3 5 5 5 6 6 7 6 6 6 7 6
5 8 7 7 5 7 9 9 8 6 4 3 2 3 4 6 7 8 8 8 8 8 7 7 7 7 7 5 4 2 2 2 3 4 4 5 5 5 5 6 6 6 7 7
8 9 8 6 9 8 9 12 10 8 6 3 2 2 3 5 7 8 8 8 8 8 8 7 7 7 7 6 5 2 2 2 3 4 4 4 4 4 4 4 6 6 5 7
Wind_Direction
141 243 10 1 335 309 299 285 282 292 321 288 272 272 69 58 45 33 22 12 4 356 345 338 318 293 269 247 236 229 217 209 201 193 197 196 202 204 205 209 212 213 221 226
197 63 22 4 351 298 291 288 292 296 314 287 275 270 154 96 61 34 18 8 3 353 348 348 334 313 284 259 242 233 221 210 201 193 191 194 196 203 204 208 215 219 224 225
53 39 16 7 12 333 311 323 318 307 302 263 270 256 197 157 99 42 22 8 2 355 346 344 339 329 307 277 254 239 225 209 198 184 174 167 165 168 181 202 214 222 227 229
69 39 17 19 25 346 317 350 314 298 284 270 258 272 218 167 160 26 11 4 358 353 347 343 339 335 322 300 274 250 225 207 189 174 166 166 167 177 195 205 219 225 226 230
71 36 27 25 17 351 338 320 299 288 278 273 254 259 235 124 14 6 2 357 354 351 347 343 342 339 333 322 299 260 212 192 174 164 158 153 142 133 87 64 241 235 231 234
83 61 34 11 356 358 328 305 281 259 262 259 258 255 243 53 5 351 350 350 350 348 346 346 348 349 350 352 1 57 122 132 138 142 142 143 138 132 128 183 239 232 222 231
96 73 40 4 344 350 344 330 300 269 245 265 297 267 65 40 8 352 345 345 346 346 347 349 352 359 8 17 37 68 95 103 112 118 118 127 129 132 150 190 219 229 215 212
344 44 35 19 6 337 347 339 325 305 302 309 301 275 79 24 4 354 350 348 347 349 349 350 358 6 19 33 47 66 84 90 93 102 108 106 106 110 124 201 227 226 221 210
352 38 56 29 19 360 344 353 334 295 288 281 269 93 73 4 358 355 352 350 347 344 347 351 6 23 37 50 60 71 84 87 87 90 92 96 99 104 146 195 222 209 189 182
341 336 46 19 359 34 7 339 314 300 305 293 305 27 7 353 347 345 349 347 343 343 353 1 17 31 43 52 58 67 79 86 82 82 85 81 89 122 167 205 209 192 175 168
333 325 62 51 26 6 7 2 333 299 291 304 315 43 11 344 340 341 343 343 343 351 5 12 18 32 44 46 44 50 60 68 68 70 67 63 39 42 240 228 203 185 174 173
356 320 58 83 70 25 22 360 335 330 338 328 316 16 359 344 347 349 348 350 353 7 19 23 22 29 33 36 35 32 29 38 34 47 62 66 235 226 228 211 191 182 176 179
350 318 251 150 120 29 18 6 357 315 317 345 343 350 347 353 1 1 360 2 8 19 24 24 23 25 28 26 25 23 22 25 22 21 21 12 218 227 227 198 179 186 190 193
308 40 40 55 47 8 9 15 23 27 21 15 15 352 357 359 359 1 2 7 20 30 31 27 24 24 24 26 25 26 30 35 42 49 53 52 49 46 32 60 197 228 231 231
290 93 97 101 100 60 41 29 33 43 38 29 2 8 358 348 350 359 7 13 23 29 31 30 28 28 28 31 32 34 36 41 52 59 57 49 44 40 35 32 2 316 287 265
40 132 143 138 144 71 53 36 33 36 24 18 17 30 352 342 359 12 17 18 22 27 29 31 32 32 34 35 36 41 45 48 54 56 52 44 45 43 33 26 20 7 331 292
151 176 196 135 161 218 72 32 23 31 22 0 5 347 334 349 4 10 11 14 20 24 26 28 32 33 34 37 39 43 47 53 56 55 51 45 43 41 35 32 31 22 9 346
202 180 204 163 196 165 81 87 316 339 22 4 349 344 340 334 334 17 19 11 14 16 20 24 26 30 33 38 43 49 50 52 53 51 49 44 41 42 39 37 32 22 17 15
322 223 203 223 174 133 166 185 229 266 56 7 349 356 351 328 230 64 26 9 5 6 11 18 19 24 34 35 33 46 54 53 51 46 43 41 39 38 35 34 31 25 24 27
118 234 231 216 228 184 135 132 182 245 165 85 347 358 355 351 42 31 2 355 359 1 5 8 15 25 32 30 28 43 51 52 48 44 43 43 41 39 35 33 31 28 32 36
195 195 218 223 235 138 131 143 191 231 92 89 357 358 360 9 4 341 340 353 359 2 2 0 12 25 24 20 29 46 50 49 45 43 43 41 40 40 35 34 35 35 37 42
234 209 204 216 223 177 147 169 210 58 87 106 360 359 355 348 343 346 351 357 360 1 2 357 0 15 20 18 28 49 48 42 43 44 44 42 39 36 34 37 36 37 36 38
227 245 247 234 31 84 166 190 157 162 190 133 350 349 340 336 345 349 351 355 357 355 356 351 346 349 9 26 19 36 45 35 39 44 43 40 44 45 38 35 35 35 34 33
188 195 227 230 211 188 191 197 197 209 225 277 317 325 326 332 340 345 347 349 352 352 352 344 337 340 355 3 0 10 24 6 20 37 36 38 42 47 51 42 38 37 31 30
197 187 213 224 186 186 205 206 199 196 212 240 278 309 325 330 338 343 342 347 346 344 344 339 336 334 331 334 332 333 334 329 4 36 44 45 51 49 53 63 46 40 47 27
194 194 198 208 187 190 191 191 191 194 204 220 263 305 331 333 336 339 342 344 341 339 339 338 337 328 325 328 327 322 289 299 340 28 41 41 49 52 50 70 96 75 51 44